Wind_Speed
2 2 1 1 2 2 3 4 5 6 6 6 7 8 8 9 9 10 10 11 11 11 11 10 9 7 4 6 4 1 2 3 4 1 4 5 8 8 10 2 5 9 3 3 4 5 8
2 2 2 2 3 3 4 5 6 7 8 8 8 9 9 10 10 10 10 11 11 11 11 10 8 6 5 10 1 2 4 3 2 3 3 5 2 4 7 7 9 5 6 9 9 4 7
3 2 2 3 4 5 5 6 7 8 9 10 10 9 10 10 11 11 10 11 11 11 11 9 7 5 6 3 5 5 6 2 4 3 4 2 2 8 2 10 6 10 11 15 12 4 6
4 3 3 3 4 5 6 7 8 9 9 10 11 11 10 11 11 11 10 11 11 10 10 8 5 2 7 7 5 7 7 4 4 5 3 4 4 9 9 6 12 13 16 14 10 1 5
5 5 5 5 5 6 7 8 8 10 10 10 11 11 11 11 11 11 10 11 10 11 8 6 3 2 6 3 8 9 8 4 5 6 4 5 7 12 7 13 14 15 13 18 5 6 4
6 6 7 7 7 8 8 9 9 10 10 10 10 11 11 11 11 10 10 10 10 10 8 6 5 6 9 7 12 11 8 7 6 7 6 8 9 10 11 10 11 7 12 7 4 4 3
7 7 7 8 8 8 9 10 10 10 10 10 11 11 11 10 10 8 7 7 7 4 10 11 1 6 4 6 9 11 11 9 8 10 12 9 10 12 10 4 11 9 7 8 7 2 6
8 8 8 8 9 9 10 10 11 11 11 10 10 10 10 10 8 7 2 4 4 5 10 15 15 9 5 7 8 13 13 12 11 12 12 6 13 1 2 6 8 8 9 10 4 1 8
9 9 9 9 9 10 10 10 11 11 11 11 10 10 9 8 6 4 4 4 4 6 8 12 14 17 11 11 12 18 18 17 11 13 10 16 9 3 7 9 10 11 10 6 8 4 14
9 9 9 9 10 10 10 10 11 11 12 11 11 10 8 4 1 4 4 4 5 4 6 14 10 11 19 12 12 12 19 13 9 11 10 11 4 5 9 10 8 15 6 4 9 10 9
10 9 10 10 10 10 11 11 11 12 12 12 11 9 7 6 5 4 3 3 3 2 7 14 12 10 14 16 14 15 18 14 12 9 5 5 7 9 9 8 5 3 3 7 9 11 12
11 12 11 10 11 11 11 11 12 12 12 12 12 10 6 4 7 7 4 4 2 7 9 9 10 13 16 23 11 15 18 15 11 10 11 12 2 7 12 6 8 4 8 12 12 13 12
12 11 12 12 11 11 12 12 12 13 13 12 11 10 7 8 5 5 4 5 7 10 6 10 12 17 19 15 16 13 18 17 11 11 13 14 13 10 8 9 10 10 11 10 11 11 9
13 13 14 12 12 12 12 13 13 13 13 12 11 9 8 11 9 7 5 8 11 13 8 4 3 12 17 18 18 17 17 17 20 14 11 11 14 17 11 14 10 11 12 11 15 10 5
15 15 15 14 13 13 13 13 14 14 15 12 8 4 5 5 10 8 12 11 11 9 4 7 7 12 14 15 11 17 18 19 18 17 12 8 6 8 4 7 11 14 11 15 17 18 12
15 16 15 15 15 14 14 14 15 14 14 12 3 5 6 7 9 10 10 18 8 5 2 8 11 11 13 13 12 17 17 17 18 16 17 3 6 10 10 7 10 12 9 9 9 15 16
15 15 15 15 14 15 15 15 15 14 13 7 2 7 4 5 10 14 12 19 16 4 6 5 10 5 11 12 16 15 12 4 13 15 14 15 6 7 7 11 14 9 11 12 16 10 10
16 16 15 14 14 15 15 14 15 15 11 4 4 5 4 9 12 18 13 16 2 7 10 8 4 7 4 6 9 12 16 9 6 8 17 16 8 10 14 10 6 11 12 12 9 13 11
18 15 15 15 15 15 15 14 13 13 13 4 6 2 3 10 8 10 14 7 4 13 10 9 9 5 3 5 6 9 8 13 5 9 4 10 7 10 13 11 13 11 14 13 9 12 11
18 16 15 15 15 15 15 14 12 11 10 5 6 5 6 13 14 9 15 11 12 9 11 8 6 2 7 8 5 6 7 5 4 10 7 4 11 11 14 4 12 14 14 13 13 12 13
15 16 16 16 15 14 14 14 12 8 8 3 5 2 5 7 12 11 6 7 16 10 15 11 9 11 10 8 10 7 12 9 9 4 6 9 12 14 17 18 12 11 12 14 13 15 17
15 15 16 17 15 14 14 13 12 8 5 4 8 6 4 4 4 7 7 11 12 14 7 10 14 13 11 9 10 10 11 9 10 12 13 10 8 13 16 15 14 13 12 14 16 13 18
15 16 16 16 16 14 13 13 11 8 6 3 6 6 7 8 9 9 9 10 10 4 8 11 10 13 8 6 9 8 11 6 7 7 6 8 10 11 13 17 20 14 15 15 16 14 16
15 16 17 15 14 14 13 11 11 8 7 6 6 5 9 7 7 9 4 4 6 8 8 10 3 7 7 4 5 11 15 14 13 11 11 7 8 10 11 14 17 9 9 9 11 15 15
13 16 16 15 14 13 12 10 9 8 4 7 7 3 7 8 3 5 6 6 10 4 9 4 7 4 5 5 6 9 11 13 17 17 15 13 10 9 12 12 15 15 6 10 11 14 15
13 15 15 14 13 11 12 10 8 7 5 7 6 4 4 10 3 8 6 10 8 10 11 9 6 4 5 11 11 13 11 12 10 15 18 17 12 10 12 14 18 15 9 6 3 11 12
11 14 14 13 10 11 11 10 8 6 5 3 5 3 2 11 3 4 5 6 10 13 7 10 11 8 12 9 10 11 14 15 13 14 12 14 13 15 14 14 12 16 7 2 10 2 11
11 13 13 12 10 11 11 10 8 6 5 4 4 5 2 7 7 4 5 7 6 7 8 5 3 11 8 12 11 9 10 9 15 13 13 13 13 12 13 16 18 1 7 10 6 5 10
11 13 12 11 10 10 10 9 9 7 5 5 2 7 5 6 6 7 8 11 9 5 9 2 7 8 6 6 10 7 10 6 3 10 8 6 8 5 6 9 8 6 7 6 5 5 5
Wind_Direction
28 26 16 349 317 322 322 326 326 323 322 322 323 324 323 321 318 320 321 322 323 327 329 332 329 336 348 270 68 18 86 92 111 164 198 225 221 239 235 233 228 258 102 243 248 284 322
25 10 339 309 300 305 309 314 315 314 315 317 314 315 315 313 311 312 314 316 319 323 325 327 319 328 330 260 82 244 148 125 211 155 180 212 260 270 306 255 257 56 274 273 265 263 272
22 8 324 308 303 300 303 306 304 307 309 310 309 309 311 307 308 307 306 307 313 319 321 320 310 323 272 287 167 180 166 188 206 200 198 217 246 237 327 241 244 262 261 250 225 256 293
35 23 1 322 311 306 303 302 304 304 305 304 307 306 306 305 304 302 302 303 311 315 315 312 302 312 278 233 189 189 184 194 204 196 221 238 267 268 252 294 260 241 244 255 178 342 104
29 17 4 348 334 319 310 306 305 306 304 304 303 302 301 300 299 298 297 298 302 299 294 299 356 264 248 264 193 197 183 208 202 193 228 248 263 258 233 242 243 217 249 225 131 104 327
11 1 351 347 343 333 323 312 307 305 306 306 302 297 295 296 296 293 292 297 298 291 277 281 246 249 229 226 189 185 194 186 188 197 225 240 240 240 214 238 251 298 204 242 255 186 227
5 358 353 345 341 334 329 322 314 310 307 305 300 296 291 288 290 287 294 313 291 233 222 235 339 251 163 175 175 186 194 191 211 212 230 208 249 221 231 315 350 317 303 299 300 87 269
5 354 351 347 340 336 333 327 321 315 310 304 298 291 289 285 282 273 281 280 355 326 294 232 238 239 211 197 187 195 189 199 198 219 219 200 234 18 61 283 274 263 267 261 262 15 258
5 0 350 347 342 340 337 332 325 319 314 308 300 292 287 284 278 247 249 260 320 318 261 214 223 223 204 206 217 192 194 210 204 223 198 257 67 79 228 230 252 242 268 298 293 302 261
5 358 350 346 344 343 340 335 329 322 318 313 305 295 287 274 167 253 228 250 330 302 266 168 196 214 198 207 229 198 197 201 217 245 216 253 191 218 219 248 244 280 140 281 271 272 290
2 357 348 345 342 340 339 336 332 325 321 315 308 295 279 219 209 202 199 284 310 282 259 139 136 151 195 200 138 192 191 206 245 203 228 187 217 208 231 246 230 316 328 282 289 276 277
359 358 353 346 339 336 336 336 332 326 321 316 309 294 269 271 231 221 259 266 278 227 239 160 154 185 184 206 179 152 185 212 234 249 221 274 227 213 231 215 243 347 266 256 258 259 257
350 353 351 350 342 335 335 334 332 327 323 318 306 287 249 220 164 243 244 208 222 236 134 159 184 176 192 186 199 188 187 197 204 202 213 212 207 214 244 228 206 239 262 261 242 231 246
348 345 346 347 345 339 338 335 333 330 325 320 305 283 253 219 223 220 200 223 242 213 196 54 235 196 199 180 202 192 193 208 222 220 274 211 203 201 187 239 251 212 252 271 292 284 14
347 343 343 344 345 342 341 337 334 334 328 323 312 290 238 242 208 200 210 222 219 238 70 209 176 216 206 191 211 197 207 213 208 225 240 216 228 132 201 220 231 238 253 267 278 269 265
350 348 343 344 345 344 343 341 335 337 332 325 292 221 197 233 196 186 225 239 233 16 321 274 217 206 197 199 195 194 200 217 218 199 237 317 252 179 178 232 236 267 307 237 231 267 279
352 351 347 346 345 343 346 344 340 341 337 334 145 220 197 175 169 205 220 228 230 176 248 234 260 199 250 187 202 196 223 121 232 183 220 238 224 169 166 221 249 183 234 250 282 289 304
351 351 351 347 343 347 347 348 345 346 355 2 266 229 168 168 198 217 223 237 86 223 222 244 289 274 266 217 225 261 226 194 197 232 201 222 223 251 229 246 225 291 292 226 251 231 269
349 349 348 345 346 347 348 350 351 352 0 345 269 34 200 183 220 213 223 254 195 227 222 214 227 251 219 228 263 243 238 85 167 242 231 207 228 240 244 246 200 243 244 251 267 278 262
343 345 349 347 347 349 350 350 353 353 355 341 273 192 161 211 263 294 216 222 205 238 257 236 258 221 206 220 214 209 238 140 210 254 23 358 253 247 262 96 275 196 243 239 230 243 245
344 345 345 345 346 350 352 353 354 357 357 348 241 337 358 194 217 228 272 227 217 185 236 207 214 232 217 224 200 224 228 169 214 141 221 233 247 259 259 278 275 265 251 221 230 239 254
345 345 347 343 344 350 352 356 358 9 39 35 313 329 217 319 345 238 158 220 240 224 197 214 240 209 228 237 235 221 210 227 226 182 229 226 243 259 277 268 260 257 247 261 274 236 247
344 343 346 343 340 347 350 357 3 18 70 355 336 289 277 132 200 233 190 215 233 259 191 295 212 241 214 231 305 24 325 342 342 304 245 236 240 248 256 252 248 232 242 257 251 245 250
343 347 344 343 341 342 347 356 6 14 26 41 337 316 272 255 234 209 259 198 227 200 289 202 250 243 43 321 287 266 261 250 247 243 242 265 244 263 266 272 254 245 267 302 248 260 254
335 342 343 340 346 341 343 351 6 16 32 62 349 360 304 282 253 166 250 218 232 137 242 226 213 15 330 278 251 234 229 235 236 232 225 226 257 255 254 257 272 265 187 235 246 259 263
327 335 337 339 346 346 339 345 2 19 32 71 331 359 298 300 63 357 247 228 239 211 207 222 219 258 267 254 216 232 228 216 218 223 217 220 216 258 251 252 258 273 327 82 290 266 305
324 336 336 335 343 344 339 340 353 18 24 47 321 339 300 281 34 327 263 303 237 280 271 184 195 233 223 243 249 230 233 245 233 207 180 212 210 226 232 253 249 285 51 290 227 321 355
314 333 334 329 334 336 337 337 341 1 17 66 303 325 26 282 294 303 271 268 284 262 257 100 183 226 227 225 243 243 248 233 233 240 199 202 212 227 235 245 244 28 286 260 34 19 359
301 316 325 323 326 331 334 337 334 341 8 55 19 337 313 259 298 300 254 244 244 279 317 261 297 288 228 250 233 260 245 233 265 234 222 254 227 258 254 234 84 46 41 29 2 354 350
Height
1541 1540 1539 1539 1538 1538 1538 1537 1535 1535 1535 1534 1532 1531 1529 1528 1527 1526 1525 1523 1522 1520 1519 1517 1516 1514 1514 1514 1513 1512 1512 1512 1512 1516 1516 1514 1512 1508 1503 1500 1503 1499 1498 1501 1499 1498 1499
1541 1540 1539 1540 1539 1538 1537 1536 1535 1535 1533 1533 1532 1531 1529 1528 1526 1525 1523 1522 1521 1519 1518 1516 1516 1514 1515 1514 1515 1513 1513 1514 1516 1516 1516 1515 1512 1511 1505 1506 1503 1500 1502 1500 1498 1496 1495
1541 1540 1540 1540 1538 1538 1536 1535 1535 1534 1533 1532 1531 1530 1528 1527 1525 1524 1523 1522 1519 1518 1517 1516 1515 1515 1516 1516 1514 1514 1514 1517 1516 1517 1517 1517 1515 1514 1508 1504 1504 1504 1502 1493 1492 1493 1493
1541 1540 1540 1539 1538 1537 1536 1535 1534 1533 1532 1531 1530 1529 1527 1525 1524 1523 1521 1520 1517 1517 1516 1515 1515 1515 1514 1511 1513 1513 1516 1516 1517 1517 1517 1517 1515 1513 1510 1505 1505 1501 1496 1497 1481 1492 1492
1541 1541 1540 1539 1538 1537 1535 1534 1533 1532 1531 1530 1529 1528 1526 1525 1523 1522 1520 1519 1517 1517 1516 1515 1516 1516 1510 1509 1512 1515 1515 1516 1518 1517 1517 1517 1515 1509 1505 1504 1498 1492 1501 1490 1485 1491 1493
1542 1541 1540 1539 1537 1536 1535 1534 1532 1531 1529 1528 1527 1526 1524 1523 1522 1521 1519 1518 1516 1515 1514 1514 1515 1519 1510 1508 1511 1513 1514 1516 1517 1517 1517 1516 1510 1503 1498 1495 1505 1491 1490 1486 1496 1488 1492
1543 1542 1541 1539 1538 1536 1534 1533 1531 1529 1528 1526 1525 1524 1523 1522 1521 1520 1520 1518 1518 1516 1514 1506 1507 1506 1508 1510 1510 1511 1514 1515 1515 1515 1510 1510 1505 1501 1489 1489 1492 1495 1496 1497 1489 1487 1498
1543 1541 1540 1538 1537 1535 1533 1531 1530 1528 1526 1525 1523 1522 1521 1520 1519 1519 1519 1519 1518 1520 1512 1505 1506 1507 1507 1508 1507 1509 1513 1514 1512 1509 1506 1508 1505 1489 1498 1500 1500 1498 1500 1496 1488 1488 1495
1543 1541 1540 1538 1536 1534 1532 1530 1528 1526 1525 1523 1521 1520 1519 1518 1518 1519 1520 1520 1518 1519 1512 1497 1501 1503 1505 1508 1503 1505 1509 1508 1506 1505 1502 1501 1495 1499 1503 1501 1503 1497 1498 1493 1499 1488 1485
1543 1541 1539 1537 1535 1533 1531 1529 1527 1525 1523 1521 1519 1518 1518 1517 1520 1519 1520 1518 1519 1518 1506 1490 1496 1497 1501 1504 1501 1501 1505 1507 1503 1501 1499 1498 1493 1501 1501 1500 1498 1500 1489 1497 1498 1498 1498
1544 1542 1539 1536 1534 1532 1530 1528 1526 1524 1521 1520 1518 1517 1516 1517 1516 1520 1520 1519 1518 1519 1512 1482 1490 1494 1496 1499 1490 1498 1502 1504 1501 1499 1502 1495 1497 1502 1504 1498 1495 1495 1494 1496 1495 1496 1492
1543 1541 1539 1536 1534 1531 1529 1527 1524 1522 1520 1518 1516 1515 1515 1516 1516 1518 1517 1519 1520 1516 1507 1482 1484 1488 1491 1494 1492 1494 1500 1503 1501 1498 1499 1494 1496 1496 1495 1494 1497 1494 1499 1495 1492 1490 1503
1543 1540 1538 1536 1533 1531 1528 1526 1523 1520 1518 1515 1513 1512 1512 1513 1517 1516 1517 1519 1513 1503 1474 1478 1480 1479 1482 1486 1487 1494 1495 1500 1499 1509 1504 1495 1493 1494 1496 1498 1496 1497 1501 1511 1508 1499 1498
1543 1540 1538 1535 1532 1529 1527 1524 1521 1518 1515 1513 1510 1509 1509 1510 1512 1513 1517 1516 1510 1477 1473 1475 1474 1474 1478 1476 1480 1487 1492 1495 1491 1489 1486 1496 1500 1486 1489 1495 1493 1493 1498 1506 1522 1505 1500
1542 1539 1537 1534 1531 1528 1526 1523 1520 1516 1513 1510 1508 1508 1508 1509 1509 1512 1516 1507 1491 1472 1473 1480 1482 1480 1477 1472 1476 1482 1484 1486 1482 1485 1497 1489 1492 1484 1489 1488 1491 1490 1502 1484 1496 1487 1494
1542 1539 1536 1533 1530 1527 1525 1522 1519 1515 1512 1509 1507 1509 1509 1507 1508 1513 1510 1496 1477 1483 1488 1486 1483 1474 1478 1477 1483 1479 1481 1475 1478 1480 1485 1481 1498 1482 1488 1491 1489 1491 1483 1499 1493 1518 1517
1541 1538 1536 1532 1529 1527 1524 1521 1517 1514 1510 1507 1506 1505 1504 1506 1509 1510 1498 1487 1481 1489 1492 1486 1481 1477 1471 1472 1475 1474 1475 1475 1474 1477 1484 1483 1492 1485 1487 1493 1488 1489 1494 1489 1481 1481 1502
1541 1538 1534 1531 1528 1526 1523 1520 1517 1513 1510 1507 1507 1498 1503 1505 1507 1498 1490 1483 1487 1488 1494 1488 1486 1482 1478 1478 1480 1475 1474 1471 1478 1478 1484 1481 1485 1495 1487 1472 1475 1478 1479 1481 1494 1500 1484
1540 1537 1533 1530 1528 1525 1522 1519 1517 1513 1510 1507 1503 1499 1503 1504 1494 1484 1485 1484 1490 1489 1489 1487 1484 1485 1485 1486 1488 1477 1475 1480 1486 1482 1480 1480 1490 1501 1497 1480 1475 1485 1478 1478 1478 1482 1494
1540 1537 1533 1530 1527 1524 1521 1519 1516 1513 1511 1510 1506 1495 1501 1502 1493 1491 1483 1491 1491 1492 1488 1489 1485 1488 1488 1487 1486 1484 1481 1486 1489 1486 1488 1487 1485 1490 1487 1494 1484 1485 1480 1475 1479 1490 1485
1539 1536 1533 1530 1527 1524 1521 1518 1516 1513 1511 1510 1504 1493 1496 1491 1490 1490 1486 1486 1487 1490 1494 1494 1491 1490 1488 1489 1486 1489 1481 1484 1490 1491 1491 1491 1497 1485 1480 1474 1472 1473 1472 1470 1477 1478 1484
1539 1536 1534 1531 1527 1524 1521 1518 1515 1513 1512 1512 1509 1503 1501 1494 1497 1493 1494 1490 1487 1484 1487 1491 1492 1487 1487 1492 1488 1488 1483 1485 1484 1487 1488 1489 1497 1489 1485 1473 1470 1475 1471 1471 1467 1470 1469
1539 1536 1533 1530 1527 1524 1521 1519 1516 1515 1514 1515 1514 1511 1507 1496 1497 1494 1485 1486 1488 1485 1491 1491 1488 1486 1490 1492 1491 1491 1493 1494 1494 1493 1490 1490 1492 1496 1497 1477 1471 1483 1473 1469 1467 1461 1463
1539 1536 1533 1530 1527 1525 1522 1520 1518 1516 1515 1517 1517 1515 1508 1491 1490 1488 1488 1491 1491 1496 1495 1494 1498 1495 1501 1501 1501 1501 1499 1497 1497 1497 1498 1498 1496 1491 1492 1482 1499 1466 1456 1458 1461 1460 1458
1539 1536 1533 1530 1527 1526 1523 1521 1519 1517 1516 1517 1518 1518 1512 1497 1491 1492 1496 1496 1497 1500 1504 1501 1500 1502 1505 1503 1501 1501 1497 1497 1492 1491 1494 1495 1498 1494 1498 1494 1476 1464 1462 1466 1467 1467 1456
1538 1536 1533 1530 1527 1525 1524 1522 1520 1518 1517 1517 1519 1516 1518 1509 1497 1502 1498 1499 1496 1497 1499 1501 1503 1508 1508 1501 1496 1501 1497 1487 1488 1487 1486 1490 1496 1500 1492 1500 1502 1468 1458 1458 1465 1478 1458
1537 1535 1533 1530 1527 1526 1524 1523 1521 1520 1518 1517 1520 1516 1519 1513 1506 1509 1505 1501 1502 1497 1492 1494 1500 1505 1506 1501 1492 1486 1484 1475 1481 1483 1485 1488 1492 1499 1496 1496 1484 1470 1466 1470 1483 1479 1473
1536 1534 1532 1530 1528 1526 1524 1523 1521 1520 1518 1517 1521 1517 1518 1515 1510 1511 1511 1510 1506 1506 1498 1498 1505 1504 1498 1499 1491 1481 1477 1470 1473 1470 1474 1485 1492 1493 1491 1494 1497 1474 1474 1477 1483 1480 1478
1534 1533 1531 1529 1527 1525 1524 1523 1522 1520 1519 1519 1523 1519 1518 1518 1512 1511 1511 1511 1512 1512 1510 1503 1501 1500 1495 1489 1486 1477 1474 1472 1477 1481 1473 1484 1475 1477 1476 1477 1480 1482 1482 1486 1486 1486 1485